captvty.fr alexa rank chart, captvty.fr alexa rank daily changes

captvty.fr alexa rank chart, captvty.fr alexa rank daily changes

captvty.fr
Actual rank:
136 752

RANK HISTORY

Date Rank Diff
2017/10/17 136 752 -1 088
2017/10/16 137 840 -2 970
2017/10/14 140 810 -575
2017/10/13 141 385 +5 410
2017/10/12 135 975 +4 982
2017/10/11 130 993 +3 774
2017/10/10 127 219 +1 621
2017/10/09 125 598 +4 054
2017/10/08 121 544 -71
2017/10/07 121 615 +4 324
2017/10/06 117 291 -88
2017/10/05 117 379 +1 588
2017/10/04 115 791 +1 503
2017/10/03 114 288 -889
2017/10/02 115 177 +3 313
2017/10/01 111 864 -1 134
2017/09/30 112 998 -755
2017/09/29 113 753 +1 791
2017/09/28 111 962 -204
2017/09/27 112 166 +30
2017/09/26 112 136 +4 054
2017/09/25 108 082 +1 746
2017/09/24 106 336 +3 120
2017/09/23 103 216 +4 816
2017/09/22 98 400 +3 630
2017/09/20 94 770 +2 997
2017/09/19 91 773 +3 339
2017/09/18 88 434 +3 954
2017/09/17 84 480 +4 133
2017/09/16 80 347 +3 366
2017/09/15 76 981 +4 805
2017/09/14 72 176 +2 601
2017/09/13 69 575 -87
2017/09/12 69 662 -794
2017/09/11 70 456 +728
2017/09/10 69 728 +40
2017/09/09 69 688 -807
2017/09/08 70 495 -791
2017/09/07 71 286 -221
2017/09/06 71 507 +484
2017/09/05 71 023 -612
2017/09/04 71 635 -947
2017/09/03 72 582 +403
2017/09/02 72 179 -600
2017/09/01 72 779 +1 864
2017/08/31 70 915 -750
2017/08/30 71 665 +490
2017/08/29 71 175 -768
2017/08/28 71 943 +635
2017/08/27 71 308 +208
2017/08/26 71 100 -1 089
2017/08/25 72 189 -136
2017/08/24 72 325 +81
2017/08/23 72 244 +671
2017/08/22 71 573 -65
2017/08/21 71 638 -2 019
2017/08/20 73 657 +343
2017/08/19 73 314 -987
2017/08/18 74 301

WIDGET FOR YOUR SITE

DOMAINS WITH THE NEAREST RANK

Domain Rank
arduino-info.wikispaces.com 136 747
jeddah.gov.sa 136 748
bonbon.hr 136 749
dbs.com.tw 136 750
revistanaturadigital.com 136 751
captvty.fr 136 752
ganttpro.com 136 753
mvr.bg 136 754
ma-seedbox.me 136 755
brdoffice.ro 136 756
paid.jp 136 757

DOMAINS WITH THE NEAREST RANK BY TLD .fr

Domain Rank
universite-lyon.fr 135 609
stars-music.fr 135 717
marseille.fr 135 807
mabusinessattitude.fr 136 552
10meilleurssitesderencontre.fr 136 688
captvty.fr 136 752
ef.fr 136 767
tag.fr 136 833
lesitedecuisine.fr 136 943
hdfever.fr 137 074
rosemood.fr 137 156